Regional Weather Roundup
Issued by NWS

Home | Current Version | Previous Version | Graphics & Text | Print | Product List | Glossary On
Versions: 1 2 3 4 5 6 7 8 9 10 11 12 13 14 15 16 17 18 19 20 21 22 23 24 25 26 27 28 29 30 31 32 33 34 35 36 37 38 39 40 41 42 43 44 45 46 47 48 49 50
419
ASUS45 KSLC 190410
RWRUT

UTAH REGIONAL WEATHER ROUNDUP
NATIONAL WEATHER SERVICE SALT LAKE CITY UT
900 PM MST SUN FEB 18 2018

UTZ001>011-023>025-190500-

NORTHERN UTAH

CITY           SKY/WX    TMP DP  RH WIND       PRES   REMARKS
BRIGHAM CITY   CLOUDY    29  27  92 CALM      29.56F
HILL AFB       CLOUDY    28  28 100 N7        29.53F BLWGSNOWWCI  21
LOGAN          LGT SNOW  31  26  82 CALM      29.56R
OGDEN          LGT SNOW  30  28  92 N8        29.53F FOG     WCI  22
SALT LAKE CITY LGT SNOW  33  31  92 N9        29.54S FOG     WCI  25
TOOELE VALLEY  LGT SNOW  32  32 100 N10       29.55R WCI  24
WENDOVER       LGT SNOW  30  27  86 N10       29.58R FOG     WCI  21
HEBER CITY     LGT SNOW  30  27  86 NE8G17    29.46S VSB 1   WCI  23
WEST JORDAN    CLOUDY    30  30 100 NW12      29.54S WCI  20

$$

UTZ011>015-024>027-190500-

CENTRAL/NORTHEAST UTAH

CITY           SKY/WX    TMP DP  RH WIND       PRES   REMARKS
PROVO AIRPORT  CLOUDY    32  31  96 NW14      29.52R WCI  22
MOAB/CANYONLAN CLEAR     54  24  31 SW18G26   29.43S
DELTA          MOCLDY    34  30  86 N12       29.47R WCI  25
PRICE          PTCLDY    45  16  31 S20G28    29.40S
RICHFIELD      CLEAR     46  18  31 S30       29.43F
ROOSEVELT      CLEAR     41  12  30 SE9       29.38S
VERNAL         MOCLDY    47  19  33 SW6       29.37R

$$

UTZ013>016-019>022-027-190500-

SOUTHERN UTAH

CITY           SKY/WX    TMP DP  RH WIND       PRES   REMARKS
BRYCE CANYON   PTCLDY    36  20  52 VRB6G24   29.59F WCI  31
CEDAR CITY     CLEAR     46  21  37 S37G48    29.47F
MILFORD        CLEAR     42  20  41 S18       29.45F
ST GEORGE      CLOUDY    55  27  34 SE8       29.53F
HANKSVILLE     CLEAR     54  21  28 SW26      29.48S
KANAB          MOCLDY    48  27  43 S16G22    29.64F
BLANDING         N/A     47  20  35 S17G25    29.67S

$$

REGIONAL REPORTS     COLORADO/ARIZONA

CITY           SKY/WX    TMP DP  RH WIND       PRES   REMARKS
CRAIG, CO      MOCLDY    45  19  35 SW22G38   29.40S
GRAND JUNCTION MOCLDY    53  19  26 SW16G23   29.46R
RIFLE, CO      PTCLDY    51  19  28 SW28G43   29.46F
MONTROSE, CO   PTCLDY    49  16  26 S15       29.55F
CORTEZ, CO     MOCLDY    45  20  36 W6        29.66F
COLORADO CITY    N/A     45  27  49 SE8       29.64F
PAGE, AZ       CLEAR     55  25  31 S12G20    29.57F
GRAND CANYON   PTCLDY    39  31  72 SW24G33   29.71F WCI  28
KINGMAN, AZ    CLEAR     55  33  43 S26G37    29.67F
FLAGSTAFF, AZ  CLOUDY    37  32  82 SW29G45   29.76F WCI  25

$$

REGIONAL REPORTS    NEVADA/IDAHO/WYOMING

CITY           SKY/WX    TMP DP  RH WIND       PRES   REMARKS
LAS VEGAS, NV  PTCLDY    62  23  22 S22G32    29.53R
ELY, NY        CLOUDY    31  16  54 N12       29.49R WCI  22
ELKO, NV       CLOUDY    27  21  78 NE6       29.54F WCI  20
POCATELLO, ID  PTCLDY    28  22  78 SW16G24   29.55R WCI  16
BURLEY, ID     MOCLDY    25  19  78 SW8       29.56F WCI  16
EVANSTON, WY   SNOW      21  20  96 N8        29.48S VSB 1/2 WCI  11
ROCK SPRINGS,  CLOUDY    22  19  89 N6        29.50F WCI  14

$$




USA.gov is the U.S. government's official web portal to all federal, state and local government web resources and services.